Flag for U.S.A. Weather past 2 weeks in Boise, Idaho, U.S.A.

Now
50 °F

Clear.


Feels Like: 47 °F
Forecast: 46 / 75 °F
Wind: 8 mph from Southeast

Location: Boise Air Terminal

Current Time: Apr 21, 2015 at 3:01:28 AM

Latest Report: Apr 21, 2015 at 1:53 AM


Visibility: 10 mi

Pressure: 29.78 "Hg

Humidity: 48%

Dew point: 31 °F

Location of BoiseLocation

Historic Weather in Boise — Graph

°F

Boise temperature yesterday

Maximum temperature yesterday: 73 °F (at 5:53 PM)
Minimum temperature yesterday: 43 °F (at 5:53 AM)
Average temperature yesterday: 59 °F

Past Weeks' High & Low Weather Summary

 TemperatureHumidityPressure
High76 °F (Apr 13, 4:53 PM)89% (Apr 6, 1:53 AM)30.32 "Hg (Apr 6, 1:53 AM)
Low31 °F (Apr 15, 6:53 AM)13% (Apr 18, 7:53 PM)29.62 "Hg (Apr 13, 11:53 PM)
Average51 °F46%29.98 "Hg
* Reported Apr 6 1:53 AM — Apr 21 1:53 AM, Boise, Weather by CustomWeather, © 2015

Note: Actual official high and low records may vary slightly from our data, if they occured in-between our weather recording intervals... More about our weather records

Advertising

Boise weather history for previous 24 hours

 ConditionsComfort  
Time TempWeatherWind HumidityBarometerVisibility
1:53 AM
Tue, Apr 21
50 °FClear.8 mph48%29.78 "Hg10 mi
12:53 AM50 °FClear.5 mph48%29.78 "Hg10 mi
11:53 PM
Mon, Apr 20
52 °FClear.No wind43%29.78 "Hg10 mi
10:53 PM57 °FClear.No wind34%29.78 "Hg10 mi
9:53 PM63 °FSunny.No wind27%29.77 "Hg10 mi
8:53 PM64 °FSunny.5 mph26%29.77 "Hg10 mi
7:53 PM69 °FSunny.8 mph21%29.78 "Hg10 mi
6:53 PM71 °FSunny.5 mph19%29.79 "Hg10 mi
5:53 PM73 °FSunny.13 mph17%29.80 "Hg10 mi
4:53 PM72 °FSunny.7 mph18%29.81 "Hg10 mi
3:53 PM72 °FSunny.6 mph19%29.83 "Hg10 mi
2:53 PM71 °FSunny.6 mph23%29.85 "Hg10 mi
1:53 PM69 °FSunny.3 mph24%29.88 "Hg10 mi
12:53 PM67 °FSunny.No wind27%29.90 "Hg10 mi
11:53 AM64 °FSunny.8 mph33%29.92 "Hg10 mi
10:53 AM62 °FSunny.8 mph31%29.92 "Hg10 mi
9:53 AM58 °FSunny.7 mph36%29.92 "Hg10 mi
8:53 AM54 °FClear.6 mph41%29.93 "Hg10 mi
7:53 AM44 °FClear.5 mph60%29.93 "Hg10 mi
6:53 AM43 °FClear.3 mph60%29.92 "Hg10 mi
5:53 AM43 °FClear.3 mph58%29.91 "Hg10 mi
4:53 AM47 °FClear.3 mph48%29.90 "Hg10 mi
3:53 AM48 °FClear.3 mph46%29.90 "Hg10 mi
Weather by CustomWeather, © 2015

See weather overviewHow to use our weather pages